This is the latest recevied weather packets stored in our database for station/object KB4RFE. If no packets are shown the sender has not sent any weather packets the latest 10 day(s).
| Time | Temp. | Humidity | Pressure | Rain* | Wind** | Luminosity | Snow |
|---|---|---|---|---|---|---|---|
| 1788126411 | 30° C | 79% | 1022 hPa | 0 mm | - | 221 W/m² | - |
| 1788126105 | 30° C | 76% | 1022.1 hPa | 0 mm | - | 209 W/m² | - |
| 1788125804 | 30° C | 78% | 1021.9 hPa | 0 mm | - | 206 W/m² | - |
| 1788125500 | 30° C | 80% | 1022.1 hPa | 0 mm | - | 233 W/m² | - |
| 1788125196 | 30° C | 79% | 1022.2 hPa | 0 mm | - | 247 W/m² | - |
| 1788124890 | 30° C | 78% | 1022 hPa | 0 mm | - | 242 W/m² | - |
| 1788124586 | 30° C | 79% | 1022 hPa | 0 mm | - | 220 W/m² | - |
| 1788124285 | 30° C | 78% | 1022 hPa | 0 mm | - | 203 W/m² | - |
| 1788123980 | 30.56° C | 77% | 1022.1 hPa | 0 mm | - | 185 W/m² | - |
| 1788123680 | 30.56° C | 77% | 1022.2 hPa | 0 mm | - | 182 W/m² | - |
| 1788123376 | 31.11° C | 78% | 1022.3 hPa | 0 mm | - | 190 W/m² | - |
| 1788123073 | 31.11° C | 76% | 1022.2 hPa | 0 mm | - | 206 W/m² | - |
| 1788122772 | 31.11° C | 77% | 1022.1 hPa | 0 mm | - | 350 W/m² | - |
| 1788122471 | 30.56° C | 77% | 1022.4 hPa | 0 mm | - | 295 W/m² | - |
| 1788122168 | 31.11° C | 76% | 1022.4 hPa | 0 mm | - | 291 W/m² | - |
| 1788121868 | 31.11° C | 77% | 1022.5 hPa | 0 mm | - | 283 W/m² | - |
| 1788121568 | 31.11° C | 77% | 1022.7 hPa | 0 mm | - | 365 W/m² | - |
| 1788121263 | 31.67° C | 76% | 1022.6 hPa | 0 mm | - | 466 W/m² | - |
| 1788120962 | 32.22° C | 75% | 1022.8 hPa | 0 mm | - | 633 W/m² | - |
| 1788120658 | 32.22° C | 72% | 1022.6 hPa | 0 mm | - | 757 W/m² | - |
| 1788120353 | 32.22° C | 74% | 1022.7 hPa | 0 mm | - | 655 W/m² | - |
| 1788120052 | 32.22° C | 71% | 1022.7 hPa | 0 mm | - | 712 W/m² | - |
| 1788119748 | 31.67° C | 74% | 1022.7 hPa | 0 mm | - | 628 W/m² | - |
| 1788119446 | 31.11° C | 78% | 1022.8 hPa | 0 mm | - | 581 W/m² | - |
| 1788119145 | 31.11° C | 77% | 1022.8 hPa | 0 mm | - | 503 W/m² | - |
* Rain latest hour (hover to see other rain measurements)
** Current wind speed in m/s (hover to see current wind gust speed)